Time,TemperatureF,DewpointF,PressureIn,WindDirection,WindDirectionDegrees,WindSpeedMPH,WindSpeedGustMPH,Humidity,HourlyPrecipIn,Conditions,Clouds,dailyrainin,SoftwareType,DateUTC
2013-11-07 00:24:00,56.0,51.0,30.10,East,95,0.0,0.0,83,0.00,,,0.02,,2013-11-07 05:24:00,
2013-11-07 00:44:00,56.0,51.0,30.10,East,95,0.0,0.0,83,0.00,,,0.02,,2013-11-07 05:44:00,
2013-11-07 00:54:00,55.0,50.0,30.09,North,355,0.0,0.0,84,0.00,,,0.02,,2013-11-07 05:54:00,
2013-11-07 01:13:00,55.0,51.0,30.08,North,355,0.0,0.0,86,0.00,,,0.02,,2013-11-07 06:13:00,
2013-11-07 01:23:00,55.0,51.0,30.08,North,355,0.0,0.0,86,0.00,,,0.02,,2013-11-07 06:23:00,
2013-11-07 01:52:00,56.0,52.0,30.07,North,355,0.0,0.0,85,0.00,,,0.02,,2013-11-07 06:52:00,
2013-11-07 02:12:00,57.0,52.0,30.06,East,93,0.0,0.0,84,0.00,,,0.02,,2013-11-07 07:12:00,
2013-11-07 02:22:00,57.0,52.0,30.06,East,93,0.0,0.0,84,0.00,,,0.02,,2013-11-07 07:22:00,
2013-11-07 02:42:00,57.0,52.0,30.03,NE,38,0.0,0.0,84,0.00,,,0.02,,2013-11-07 07:42:00,
2013-11-07 02:52:00,57.0,52.0,30.03,NE,40,0.0,0.0,83,0.00,,,0.02,,2013-11-07 07:52:00,
2013-11-07 03:02:00,57.0,52.0,30.03,NE,40,0.0,0.0,83,0.00,,,0.02,,2013-11-07 08:02:00,
2013-11-07 03:22:00,57.0,52.0,30.02,SW,228,0.0,3.0,84,0.00,,,0.02,,2013-11-07 08:22:00,
2013-11-07 03:32:00,57.0,52.0,30.02,SW,228,0.0,3.0,84,0.00,,,0.02,,2013-11-07 08:32:00,
2013-11-07 03:42:00,57.0,52.0,30.02,SW,228,0.0,3.0,84,0.00,,,0.02,,2013-11-07 08:42:00,
2013-11-07 03:52:00,57.0,53.0,30.00,SW,228,0.0,0.0,85,0.00,,,0.02,,2013-11-07 08:52:00,
2013-11-07 04:11:00,57.0,53.0,30.01,SW,228,0.0,0.0,85,0.00,,,0.02,,2013-11-07 09:11:00,
2013-11-07 04:22:00,57.0,53.0,30.01,SW,228,0.0,0.0,85,0.00,,,0.02,,2013-11-07 09:22:00,
2013-11-07 04:42:00,56.0,52.0,30.00,SW,232,0.0,0.0,87,0.00,,,0.02,,2013-11-07 09:42:00,
2013-11-07 04:53:00,56.0,52.0,30.00,SW,232,0.0,0.0,87,0.00,,,0.02,,2013-11-07 09:53:00,
2013-11-07 05:13:00,56.0,53.0,29.98,NW,306,0.0,0.0,90,0.01,,,0.03,,2013-11-07 10:13:00,
2013-11-07 05:23:00,56.0,53.0,29.98,NW,306,0.0,0.0,90,0.01,,,0.03,,2013-11-07 10:23:00,
2013-11-07 05:42:00,55.0,52.0,29.99,NW,306,0.0,0.0,91,0.01,,,0.03,,2013-11-07 10:42:00,
2013-11-07 05:53:00,55.0,52.0,29.98,NW,306,0.0,0.0,91,0.02,,,0.04,,2013-11-07 10:53:00,
2013-11-07 06:12:00,55.0,53.0,29.98,NW,306,0.0,0.0,92,0.02,,,0.04,,2013-11-07 11:12:00,
2013-11-07 06:22:00,55.0,53.0,29.98,NW,306,0.0,0.0,92,0.02,,,0.04,,2013-11-07 11:22:00,
2013-11-07 06:43:00,55.0,53.0,29.99,NW,306,0.0,0.0,93,0.05,,,0.07,,2013-11-07 11:43:00,
2013-11-07 06:52:00,55.0,53.0,29.99,NW,306,0.0,0.0,93,0.05,,,0.07,,2013-11-07 11:52:00,
2013-11-07 07:22:00,55.0,53.0,30.00,NW,306,0.0,0.0,94,0.05,,,0.11,,2013-11-07 12:22:00,
2013-11-07 07:42:00,54.0,52.0,29.99,NW,306,0.0,0.0,94,0.05,,,0.12,,2013-11-07 12:42:00,
2013-11-07 07:52:00,54.0,52.0,29.99,NW,306,0.0,0.0,94,0.05,,,0.12,,2013-11-07 12:52:00,
2013-11-07 08:12:00,54.0,52.0,30.00,NW,306,0.0,0.0,94,0.02,,,0.12,,2013-11-07 13:12:00,
2013-11-07 08:22:00,54.0,52.0,29.98,WNW,289,0.0,0.0,94,0.02,,,0.12,,2013-11-07 13:22:00,
2013-11-07 08:42:00,54.0,52.0,29.99,South,188,0.0,3.0,94,0.01,,,0.12,,2013-11-07 13:42:00,
2013-11-07 08:52:00,54.0,52.0,29.99,South,188,0.0,3.0,94,0.01,,,0.12,,2013-11-07 13:52:00,
2013-11-07 09:12:00,55.0,53.0,30.00,SE,144,0.0,0.0,94,0.01,,,0.12,,2013-11-07 14:12:00,
2013-11-07 09:22:00,55.0,53.0,30.00,SE,144,0.0,0.0,94,0.01,,,0.12,,2013-11-07 14:22:00,
2013-11-07 09:42:00,55.0,53.0,30.01,NE,40,0.0,0.0,94,0.00,,,0.12,,2013-11-07 14:42:00,
2013-11-07 09:52:00,55.0,53.0,30.01,NE,40,0.0,0.0,94,0.00,,,0.12,,2013-11-07 14:52:00,
2013-11-07 10:22:00,57.0,54.0,30.01,SSW,193,0.0,0.0,90,0.00,,,0.12,,2013-11-07 15:22:00,
2013-11-07 10:43:00,58.0,53.0,30.02,WSW,251,0.0,6.0,84,0.00,,,0.12,,2013-11-07 15:43:00,
2013-11-07 10:53:00,58.0,54.0,30.01,SSE,151,0.0,1.0,87,0.00,,,0.12,,2013-11-07 15:53:00,
2013-11-07 11:23:00,57.0,52.0,30.02,SSE,166,0.0,3.0,82,0.00,,,0.12,,2013-11-07 16:23:00,
2013-11-07 11:42:00,57.0,51.0,30.03,NW,313,3.0,3.0,80,0.00,,,0.12,,2013-11-07 16:42:00,
2013-11-07 11:52:00,57.0,51.0,30.03,NW,313,3.0,3.0,80,0.00,,,0.12,,2013-11-07 16:52:00,
2013-11-07 12:22:00,57.0,47.0,30.02,WNW,300,0.0,8.0,70,0.00,,,0.12,,2013-11-07 17:22:00,
2013-11-07 12:43:00,56.0,47.0,30.02,WNW,288,0.0,5.0,72,0.00,,,0.12,,2013-11-07 17:43:00,
2013-11-07 12:52:00,58.0,48.0,30.02,SE,144,3.0,5.0,69,0.00,,,0.12,,2013-11-07 17:52:00,
2013-11-07 13:12:00,56.0,48.0,30.02,South,173,0.0,4.0,75,0.00,,,0.12,,2013-11-07 18:12:00,
2013-11-07 13:23:00,56.0,48.0,30.02,South,173,0.0,4.0,75,0.00,,,0.12,,2013-11-07 18:23:00,
2013-11-07 13:42:00,55.0,44.0,30.02,East,93,3.0,6.0,66,0.00,,,0.12,,2013-11-07 18:42:00,
2013-11-07 13:52:00,55.0,44.0,30.02,East,89,3.0,4.0,66,0.00,,,0.12,,2013-11-07 18:52:00,
2013-11-07 14:11:00,56.0,44.0,30.02,SW,220,0.0,3.0,63,0.00,,,0.12,,2013-11-07 19:11:00,
2013-11-07 14:22:00,56.0,44.0,30.02,SW,220,0.0,3.0,63,0.00,,,0.12,,2013-11-07 19:22:00,
2013-11-07 14:42:00,53.0,41.0,30.02,ESE,117,0.0,3.0,63,0.00,,,0.12,,2013-11-07 19:42:00,
2013-11-07 14:52:00,53.0,41.0,30.02,East,82,1.0,3.0,63,0.00,,,0.12,,2013-11-07 19:52:00,
2013-11-07 15:22:00,51.0,39.0,30.02,West,260,0.0,3.0,64,0.00,,,0.12,,2013-11-07 20:22:00,
2013-11-07 15:42:00,50.0,38.0,30.02,WSW,249,0.0,2.0,63,0.00,,,0.12,,2013-11-07 20:42:00,
2013-11-07 15:52:00,50.0,38.0,30.02,WSW,249,0.0,2.0,63,0.00,,,0.12,,2013-11-07 20:52:00,
2013-11-07 16:12:00,51.0,38.0,30.03,South,178,0.0,0.0,61,0.00,,,0.12,,2013-11-07 21:12:00,
2013-11-07 16:22:00,51.0,38.0,30.03,South,178,0.0,0.0,61,0.00,,,0.12,,2013-11-07 21:22:00,
2013-11-07 16:34:00,51.0,38.0,30.03,South,178,0.0,0.0,61,0.00,,,0.12,,2013-11-07 21:34:00,
2013-11-07 17:24:00,46.0,32.0,30.06,SE,126,0.0,0.0,59,0.00,,,0.12,,2013-11-07 22:24:00,
2013-11-07 17:43:00,46.0,32.0,30.05,NE,34,0.0,0.0,59,0.00,,,0.12,,2013-11-07 22:43:00,
2013-11-07 17:53:00,46.0,32.0,30.05,NE,34,0.0,0.0,59,0.00,,,0.12,,2013-11-07 22:53:00,
2013-11-07 18:22:00,44.0,31.0,30.08,WSW,252,0.0,0.0,61,0.00,,,0.12,,2013-11-07 23:22:00,
2013-11-07 18:43:00,43.0,32.0,30.09,NW,304,0.0,1.0,64,0.00,,,0.12,,2013-11-07 23:43:00,
2013-11-07 18:53:00,42.0,31.0,30.09,South,175,0.0,5.0,65,0.00,,,0.12,,2013-11-07 23:53:00,
2013-11-07 19:22:00,42.0,31.0,30.11,ESE,104,0.0,3.0,65,0.00,,,0.12,,2013-11-08 00:22:00,
2013-11-07 19:32:00,42.0,31.0,30.11,ESE,104,0.0,3.0,65,0.00,,,0.12,,2013-11-08 00:32:00,
2013-11-07 19:42:00,42.0,31.0,30.11,ESE,104,0.0,3.0,65,0.00,,,0.12,,2013-11-08 00:42:00,
2013-11-07 19:52:00,42.0,31.0,30.11,ESE,104,0.0,3.0,65,0.00,,,0.12,,2013-11-08 00:52:00,
2013-11-07 20:12:00,40.0,30.0,30.11,NNE,19,0.0,0.0,68,0.00,,,0.12,,2013-11-08 01:12:00,
2013-11-07 20:22:00,40.0,30.0,30.11,NNE,19,0.0,0.0,68,0.00,,,0.12,,2013-11-08 01:22:00,
2013-11-07 20:32:00,40.0,30.0,30.11,NNE,19,0.0,0.0,68,0.00,,,0.12,,2013-11-08 01:32:00,
2013-11-07 21:22:00,39.0,31.0,30.11,NNW,330,0.0,0.0,74,0.00,,,0.12,,2013-11-08 02:22:00,
2013-11-07 21:32:00,39.0,31.0,30.11,NNW,330,0.0,0.0,74,0.00,,,0.12,,2013-11-08 02:32:00,
2013-11-07 21:42:00,39.0,31.0,30.11,NNW,330,0.0,0.0,74,0.00,,,0.12,,2013-11-08 02:42:00,
2013-11-07 21:52:00,39.0,30.0,30.12,NNW,346,0.0,0.0,71,0.00,,,0.12,,2013-11-08 02:52:00,
2013-11-07 22:22:00,39.0,30.0,30.13,NE,46,0.0,0.0,70,0.00,,,0.12,,2013-11-08 03:22:00,
2013-11-07 22:44:00,39.0,30.0,30.14,WNW,299,0.0,2.0,70,0.00,,,0.12,,2013-11-08 03:44:00,
2013-11-07 22:55:00,39.0,30.0,30.14,NW,323,0.0,0.0,71,0.00,,,0.12,,2013-11-08 03:55:00,
2013-11-07 23:24:00,38.0,31.0,30.14,WNW,300,0.0,1.0,75,0.00,,,0.12,,2013-11-08 04:24:00,
2013-11-07 23:44:00,38.0,29.0,30.14,NE,35,0.0,0.0,70,0.00,,,0.12,,2013-11-08 04:44:00,
2013-11-07 23:54:00,38.0,29.0,30.14,NE,35,0.0,0.0,70,0.00,,,0.12,,2013-11-08 04:54:00,